Time,TemperatureF,DewpointF,PressureIn,WindDirection,WindDirectionDegrees,WindSpeedMPH,WindSpeedGustMPH,Humidity,HourlyPrecipIn,Conditions,Clouds,dailyrainin,SoftwareType,DateUTC
2013-04-15 00:03:00,32.0,-99.9,-100.00,WSW,246,23.0,-999.0,0,-99.99,,,-99.99,,2013-04-15 05:03:00,
2013-04-15 00:13:00,32.0,-99.9,-100.00,WSW,258,17.0,-999.0,0,-99.99,,,-99.99,,2013-04-15 05:13:00,
2013-04-15 00:23:00,32.0,-99.9,-100.00,West,266,20.0,-999.0,0,-99.99,,,-99.99,,2013-04-15 05:23:00,
2013-04-15 00:33:00,31.0,-99.9,-100.00,WSW,257,25.0,-999.0,0,-99.99,,,-99.99,,2013-04-15 05:33:00,
2013-04-15 00:43:00,31.0,-99.9,-100.00,West,264,29.0,-999.0,0,-99.99,,,-99.99,,2013-04-15 05:43:00,
2013-04-15 00:53:00,31.0,-99.9,-100.00,West,275,20.0,-999.0,0,-99.99,,,-99.99,,2013-04-15 05:53:00,
2013-04-15 01:02:00,30.0,-99.9,-100.00,West,266,28.0,-999.0,0,-99.99,,,-99.99,,2013-04-15 06:02:00,
2013-04-15 01:12:00,30.0,-99.9,-100.00,WSW,256,15.0,-999.0,0,-99.99,,,-99.99,,2013-04-15 06:12:00,
2013-04-15 01:23:00,30.0,-99.9,-100.00,WSW,254,22.0,-999.0,0,-99.99,,,-99.99,,2013-04-15 06:23:00,
2013-04-15 01:34:00,30.0,-99.9,-100.00,WSW,250,19.0,-999.0,0,-99.99,,,-99.99,,2013-04-15 06:34:00,
2013-04-15 01:38:00,30.0,-99.9,-100.00,WSW,249,20.0,-999.0,0,-99.99,,,-99.99,,2013-04-15 06:38:00,
2013-04-15 01:43:00,30.0,-99.9,-100.00,WSW,254,26.0,-999.0,0,-99.99,,,-99.99,,2013-04-15 06:43:00,
2013-04-15 01:53:00,30.0,-99.9,-100.00,West,264,29.0,-999.0,0,-99.99,,,-99.99,,2013-04-15 06:53:00,
2013-04-15 02:03:00,30.0,-99.9,-100.00,West,260,22.0,-999.0,0,-99.99,,,-99.99,,2013-04-15 07:03:00,
2013-04-15 02:42:00,30.0,-99.9,-100.00,West,269,19.0,-999.0,0,-99.99,,,-99.99,,2013-04-15 07:42:00,
2013-04-15 02:54:00,29.0,-99.9,-100.00,West,262,19.0,-999.0,0,-99.99,,,-99.99,,2013-04-15 07:54:00,
2013-04-15 03:03:00,29.0,-99.9,-100.00,West,259,20.0,-999.0,0,-99.99,,,-99.99,,2013-04-15 08:03:00,
2013-04-15 03:14:00,29.0,-99.9,-100.00,WSW,252,27.0,-999.0,0,-99.99,,,-99.99,,2013-04-15 08:14:00,
2013-04-15 03:23:00,29.0,-99.9,-100.00,WSW,246,16.0,-999.0,0,-99.99,,,-99.99,,2013-04-15 08:23:00,
2013-04-15 03:35:00,29.0,-99.9,-100.00,WSW,251,19.0,-999.0,0,-99.99,,,-99.99,,2013-04-15 08:35:00,
2013-04-15 03:43:00,28.0,-99.9,-100.00,West,260,25.0,-999.0,0,-99.99,,,-99.99,,2013-04-15 08:43:00,
2013-04-15 03:52:00,29.0,-99.9,-100.00,West,267,21.0,-999.0,0,-99.99,,,-99.99,,2013-04-15 08:52:00,
2013-04-15 04:03:00,29.0,-99.9,-100.00,West,259,15.0,-999.0,0,-99.99,,,-99.99,,2013-04-15 09:03:00,
2013-04-15 04:13:00,29.0,-99.9,-100.00,WSW,258,18.0,-999.0,0,-99.99,,,-99.99,,2013-04-15 09:13:00,
2013-04-15 04:23:00,28.0,-99.9,-100.00,WSW,257,24.0,-999.0,0,-99.99,,,-99.99,,2013-04-15 09:23:00,
2013-04-15 04:33:00,29.0,-99.9,-100.00,WSW,247,15.0,-999.0,0,-99.99,,,-99.99,,2013-04-15 09:33:00,
2013-04-15 04:43:00,28.0,-99.9,-100.00,West,271,15.0,-999.0,0,-99.99,,,-99.99,,2013-04-15 09:43:00,
2013-04-15 04:53:00,29.0,-99.9,-100.00,West,264,21.0,-999.0,0,-99.99,,,-99.99,,2013-04-15 09:53:00,
2013-04-15 05:03:00,29.0,-99.9,-100.00,WSW,252,20.0,-999.0,0,-99.99,,,-99.99,,2013-04-15 10:03:00,
2013-04-15 05:13:00,29.0,-99.9,-100.00,West,273,22.0,-999.0,0,-99.99,,,-99.99,,2013-04-15 10:13:00,
2013-04-15 05:23:00,29.0,-99.9,-100.00,West,274,14.0,-999.0,0,-99.99,,,-99.99,,2013-04-15 10:23:00,
2013-04-15 05:33:00,29.0,-99.9,-100.00,WSW,258,14.0,-999.0,0,-99.99,,,-99.99,,2013-04-15 10:33:00,
2013-04-15 05:42:00,30.0,-99.9,-100.00,West,272,22.0,-999.0,0,-99.99,,,-99.99,,2013-04-15 10:42:00,
2013-04-15 05:53:00,30.0,-99.9,-100.00,WSW,251,20.0,-999.0,0,-99.99,,,-99.99,,2013-04-15 10:53:00,
2013-04-15 06:04:00,30.0,-99.9,-100.00,West,272,12.0,-999.0,0,-99.99,,,-99.99,,2013-04-15 11:04:00,
2013-04-15 06:13:00,30.0,-99.9,-100.00,WSW,246,12.0,-999.0,0,-99.99,,,-99.99,,2013-04-15 11:13:00,
2013-04-15 06:23:00,30.0,-99.9,-100.00,West,274,19.0,-999.0,0,-99.99,,,-99.99,,2013-04-15 11:23:00,
2013-04-15 06:33:00,31.0,-99.9,-100.00,West,267,17.0,-999.0,0,-99.99,,,-99.99,,2013-04-15 11:33:00,
2013-04-15 06:54:00,31.0,-99.9,-100.00,West,274,25.0,-999.0,0,-99.99,,,-99.99,,2013-04-15 11:54:00,
2013-04-15 07:05:00,31.0,-99.9,-100.00,West,261,18.0,-999.0,0,-99.99,,,-99.99,,2013-04-15 12:05:00,
2013-04-15 07:15:00,31.0,-99.9,-100.00,West,275,18.0,-999.0,0,-99.99,,,-99.99,,2013-04-15 12:15:00,
2013-04-15 07:24:00,31.0,-99.9,-100.00,WNW,290,19.0,-999.0,0,-99.99,,,-99.99,,2013-04-15 12:24:00,
2013-04-15 07:35:00,31.0,-99.9,-100.00,WNW,284,22.0,-999.0,0,-99.99,,,-99.99,,2013-04-15 12:35:00,
2013-04-15 07:43:00,31.0,-99.9,-100.00,WNW,287,17.0,-999.0,0,-99.99,,,-99.99,,2013-04-15 12:43:00,
2013-04-15 07:54:00,31.0,-99.9,-100.00,West,278,24.0,-999.0,0,-99.99,,,-99.99,,2013-04-15 12:54:00,
2013-04-15 08:05:00,31.0,-99.9,-100.00,West,276,18.0,-999.0,0,-99.99,,,-99.99,,2013-04-15 13:05:00,
2013-04-15 08:13:00,31.0,-99.9,-100.00,WNW,287,14.0,-999.0,0,-99.99,,,-99.99,,2013-04-15 13:13:00,
2013-04-15 08:24:00,31.0,-99.9,-100.00,WNW,300,16.0,-999.0,0,-99.99,,,-99.99,,2013-04-15 13:24:00,
2013-04-15 08:34:00,31.0,-99.9,-100.00,WNW,284,21.0,-999.0,0,-99.99,,,-99.99,,2013-04-15 13:34:00,
2013-04-15 08:43:00,31.0,-99.9,-100.00,NW,305,12.0,-999.0,0,-99.99,,,-99.99,,2013-04-15 13:43:00,
2013-04-15 08:54:00,31.0,-99.9,-100.00,WNW,294,28.0,-999.0,0,-99.99,,,-99.99,,2013-04-15 13:54:00,
2013-04-15 09:06:00,31.0,-99.9,-100.00,WNW,294,28.0,-999.0,0,-99.99,,,-99.99,,2013-04-15 14:06:00,
2013-04-15 09:14:00,32.0,-99.9,-100.00,WNW,293,28.0,-999.0,0,-99.99,,,-99.99,,2013-04-15 14:14:00,
2013-04-15 09:23:00,32.0,-99.9,-100.00,NW,318,19.0,-999.0,0,-99.99,,,-99.99,,2013-04-15 14:23:00,
2013-04-15 09:34:00,32.0,-99.9,-100.00,West,276,13.0,-999.0,0,-99.99,,,-99.99,,2013-04-15 14:34:00,
2013-04-15 09:45:00,32.0,-99.9,-100.00,WNW,288,16.0,-999.0,0,-99.99,,,-99.99,,2013-04-15 14:45:00,
2013-04-15 09:55:00,32.0,-99.9,-100.00,West,279,15.0,-999.0,0,-99.99,,,-99.99,,2013-04-15 14:55:00,
2013-04-15 10:04:00,33.0,-99.9,-100.00,WNW,299,17.0,-999.0,0,-99.99,,,-99.99,,2013-04-15 15:04:00,
2013-04-15 10:13:00,33.0,-99.9,-100.00,WNW,282,14.0,-999.0,0,-99.99,,,-99.99,,2013-04-15 15:13:00,
2013-04-15 10:25:00,33.0,-99.9,-100.00,West,281,19.0,-999.0,0,-99.99,,,-99.99,,2013-04-15 15:25:00,
2013-04-15 10:37:00,34.0,-99.9,-100.00,West,275,22.0,-999.0,0,-99.99,,,-99.99,,2013-04-15 15:37:00,
2013-04-15 10:45:00,34.0,-99.9,-100.00,West,281,21.0,-999.0,0,-99.99,,,-99.99,,2013-04-15 15:45:00,
2013-04-15 10:55:00,34.0,-99.9,-100.00,West,278,22.0,-999.0,0,-99.99,,,-99.99,,2013-04-15 15:55:00,
2013-04-15 11:05:00,34.0,-99.9,-100.00,West,281,17.0,-999.0,0,-99.99,,,-99.99,,2013-04-15 16:05:00,
2013-04-15 11:14:00,34.0,-99.9,-100.00,West,279,18.0,-999.0,0,-99.99,,,-99.99,,2013-04-15 16:14:00,
2013-04-15 11:34:00,34.0,-99.9,-100.00,WNW,290,9.0,-999.0,0,-99.99,,,-99.99,,2013-04-15 16:34:00,
2013-04-15 11:45:00,34.0,-99.9,-100.00,NW,314,16.0,-999.0,0,-99.99,,,-99.99,,2013-04-15 16:45:00,
2013-04-15 11:55:00,33.0,-99.9,-100.00,WNW,291,15.0,-999.0,0,-99.99,,,-99.99,,2013-04-15 16:55:00,
2013-04-15 12:05:00,33.0,-99.9,-100.00,WNW,287,15.0,-999.0,0,-99.99,,,-99.99,,2013-04-15 17:05:00,
2013-04-15 12:15:00,34.0,-99.9,-100.00,West,281,23.0,-999.0,0,-99.99,,,-99.99,,2013-04-15 17:15:00,
2013-04-15 12:22:00,34.0,-99.9,-100.00,West,274,20.0,-999.0,0,-99.99,,,-99.99,,2013-04-15 17:22:00,
2013-04-15 12:33:00,34.0,-99.9,-100.00,West,274,14.0,-999.0,0,-99.99,,,-99.99,,2013-04-15 17:33:00,
2013-04-15 12:44:00,34.0,-99.9,-100.00,WNW,284,19.0,-999.0,0,-99.99,,,-99.99,,2013-04-15 17:44:00,
2013-04-15 12:53:00,34.0,-99.9,-100.00,WNW,286,15.0,-999.0,0,-99.99,,,-99.99,,2013-04-15 17:53:00,
2013-04-15 13:04:00,34.0,-99.9,-100.00,NW,304,11.0,-999.0,0,-99.99,,,-99.99,,2013-04-15 18:04:00,
2013-04-15 13:13:00,34.0,-99.9,-100.00,West,275,20.0,-999.0,0,-99.99,,,-99.99,,2013-04-15 18:13:00,
2013-04-15 13:24:00,35.0,-99.9,-100.00,WNW,295,12.0,-999.0,0,-99.99,,,-99.99,,2013-04-15 18:24:00,
2013-04-15 13:33:00,34.0,-99.9,-100.00,WNW,285,18.0,-999.0,0,-99.99,,,-99.99,,2013-04-15 18:33:00,
2013-04-15 13:42:00,34.0,-99.9,-100.00,West,281,9.0,-999.0,0,-99.99,,,-99.99,,2013-04-15 18:42:00,
2013-04-15 13:52:00,35.0,-99.9,-100.00,West,281,10.0,-999.0,0,-99.99,,,-99.99,,2013-04-15 18:52:00,
2013-04-15 14:02:00,34.0,-99.9,-100.00,WNW,287,16.0,-999.0,0,-99.99,,,-99.99,,2013-04-15 19:02:00,
2013-04-15 14:12:00,35.0,-99.9,-100.00,West,280,22.0,-999.0,0,-99.99,,,-99.99,,2013-04-15 19:12:00,
2013-04-15 14:22:00,35.0,-99.9,-100.00,WNW,286,21.0,-999.0,0,-99.99,,,-99.99,,2013-04-15 19:22:00,
2013-04-15 14:39:00,35.0,-99.9,-100.00,West,273,20.0,-999.0,0,-99.99,,,-99.99,,2013-04-15 19:39:00,
2013-04-15 14:59:00,35.0,-99.9,-100.00,West,263,12.0,-999.0,0,-99.99,,,-99.99,,2013-04-15 19:59:00,
2013-04-15 15:02:00,35.0,-99.9,-100.00,WNW,284,17.0,-999.0,0,-99.99,,,-99.99,,2013-04-15 20:02:00,
2013-04-15 15:12:00,35.0,-99.9,-100.00,WNW,284,17.0,-999.0,0,-99.99,,,-99.99,,2013-04-15 20:12:00,
2013-04-15 15:22:00,35.0,-99.9,-100.00,WNW,290,21.0,-999.0,0,-99.99,,,-99.99,,2013-04-15 20:22:00,
2013-04-15 15:32:00,35.0,-99.9,-100.00,WNW,302,10.0,-999.0,0,-99.99,,,-99.99,,2013-04-15 20:32:00,
2013-04-15 15:42:00,35.0,-99.9,-100.00,WNW,298,22.0,-999.0,0,-99.99,,,-99.99,,2013-04-15 20:42:00,
2013-04-15 15:52:00,35.0,-99.9,-100.00,WNW,297,12.0,-999.0,0,-99.99,,,-99.99,,2013-04-15 20:52:00,
2013-04-15 16:02:00,35.0,-99.9,-100.00,NW,315,15.0,-999.0,0,-99.99,,,-99.99,,2013-04-15 21:02:00,
2013-04-15 16:12:00,35.0,-99.9,-100.00,NW,309,12.0,-999.0,0,-99.99,,,-99.99,,2013-04-15 21:12:00,
2013-04-15 16:22:00,35.0,-99.9,-100.00,WNW,290,11.0,-999.0,0,-99.99,,,-99.99,,2013-04-15 21:22:00,
2013-04-15 16:33:00,34.0,-99.9,-100.00,NW,304,9.0,-999.0,0,-99.99,,,-99.99,,2013-04-15 21:33:00,
2013-04-15 16:43:00,35.0,-99.9,-100.00,WNW,290,15.0,-999.0,0,-99.99,,,-99.99,,2013-04-15 21:43:00,
2013-04-15 16:53:00,35.0,-99.9,-100.00,WNW,299,11.0,-999.0,0,-99.99,,,-99.99,,2013-04-15 21:53:00,
2013-04-15 17:02:00,35.0,-99.9,-100.00,NW,305,14.0,-999.0,0,-99.99,,,-99.99,,2013-04-15 22:02:00,
2013-04-15 17:13:00,35.0,-99.9,-100.00,WNW,300,7.0,-999.0,0,-99.99,,,-99.99,,2013-04-15 22:13:00,
2013-04-15 17:23:00,35.0,-99.9,-100.00,WNW,291,13.0,-999.0,0,-99.99,,,-99.99,,2013-04-15 22:23:00,
2013-04-15 17:33:00,35.0,-99.9,-100.00,NW,308,16.0,-999.0,0,-99.99,,,-99.99,,2013-04-15 22:33:00,
2013-04-15 17:42:00,34.0,-99.9,-100.00,NW,310,19.0,-999.0,0,-99.99,,,-99.99,,2013-04-15 22:42:00,
2013-04-15 17:52:00,34.0,-99.9,-100.00,NW,309,23.0,-999.0,0,-99.99,,,-99.99,,2013-04-15 22:52:00,
2013-04-15 18:02:00,34.0,-99.9,-100.00,NW,319,20.0,-999.0,0,-99.99,,,-99.99,,2013-04-15 23:02:00,
2013-04-15 18:12:00,35.0,-99.9,-100.00,NW,306,15.0,-999.0,0,-99.99,,,-99.99,,2013-04-15 23:12:00,
2013-04-15 18:22:00,34.0,-99.9,-100.00,NNW,329,15.0,-999.0,0,-99.99,,,-99.99,,2013-04-15 23:22:00,
2013-04-15 18:32:00,35.0,-99.9,-100.00,NW,321,19.0,-999.0,0,-99.99,,,-99.99,,2013-04-15 23:32:00,
2013-04-15 18:42:00,34.0,-99.9,-100.00,NW,313,10.0,-999.0,0,-99.99,,,-99.99,,2013-04-15 23:42:00,
2013-04-15 18:52:00,34.0,-99.9,-100.00,NW,320,21.0,-999.0,0,-99.99,,,-99.99,,2013-04-15 23:52:00,
2013-04-15 19:03:00,34.0,-99.9,-100.00,NNW,340,17.0,-999.0,0,-99.99,,,-99.99,,2013-04-16 00:03:00,
2013-04-15 19:12:00,34.0,-99.9,-100.00,NW,321,16.0,-999.0,0,-99.99,,,-99.99,,2013-04-16 00:12:00,
2013-04-15 19:22:00,34.0,-99.9,-100.00,NW,323,17.0,-999.0,0,-99.99,,,-99.99,,2013-04-16 00:22:00,
2013-04-15 19:32:00,34.0,-99.9,-100.00,NNW,329,18.0,-999.0,0,-99.99,,,-99.99,,2013-04-16 00:32:00,
2013-04-15 19:42:00,34.0,-99.9,-100.00,NNW,329,18.0,-999.0,0,-99.99,,,-99.99,,2013-04-16 00:42:00,
2013-04-15 19:52:00,34.0,-99.9,-100.00,WNW,302,8.0,-999.0,0,-99.99,,,-99.99,,2013-04-16 00:52:00,
2013-04-15 20:02:00,34.0,-99.9,-100.00,NW,324,14.0,-999.0,0,-99.99,,,-99.99,,2013-04-16 01:02:00,
2013-04-15 20:12:00,34.0,-99.9,-100.00,NW,319,9.0,-999.0,0,-99.99,,,-99.99,,2013-04-16 01:12:00,
2013-04-15 20:22:00,34.0,-99.9,-100.00,NW,315,13.0,-999.0,0,-99.99,,,-99.99,,2013-04-16 01:22:00,
2013-04-15 20:32:00,33.0,-99.9,-100.00,NW,319,12.0,-999.0,0,-99.99,,,-99.99,,2013-04-16 01:32:00,
2013-04-15 20:42:00,33.0,-99.9,-100.00,WNW,302,12.0,-999.0,0,-99.99,,,-99.99,,2013-04-16 01:42:00,
2013-04-15 20:52:00,33.0,-99.9,-100.00,WNW,303,11.0,-999.0,0,-99.99,,,-99.99,,2013-04-16 01:52:00,
2013-04-15 21:02:00,33.0,-99.9,-100.00,WNW,297,12.0,-999.0,0,-99.99,,,-99.99,,2013-04-16 02:02:00,
2013-04-15 21:12:00,33.0,-99.9,-100.00,NNW,330,8.0,-999.0,0,-99.99,,,-99.99,,2013-04-16 02:12:00,
2013-04-15 21:22:00,33.0,-99.9,-100.00,WNW,301,7.0,-999.0,0,-99.99,,,-99.99,,2013-04-16 02:22:00,
2013-04-15 21:32:00,33.0,-99.9,-100.00,NW,306,9.0,-999.0,0,-99.99,,,-99.99,,2013-04-16 02:32:00,
2013-04-15 21:42:00,33.0,-99.9,-100.00,NW,306,10.0,-999.0,0,-99.99,,,-99.99,,2013-04-16 02:42:00,
2013-04-15 21:52:00,33.0,-99.9,-100.00,NW,321,13.0,-999.0,0,-99.99,,,-99.99,,2013-04-16 02:52:00,
2013-04-15 22:02:00,33.0,-99.9,-100.00,WNW,303,4.0,-999.0,0,-99.99,,,-99.99,,2013-04-16 03:02:00,
2013-04-15 22:12:00,33.0,-99.9,-100.00,West,275,9.0,-999.0,0,-99.99,,,-99.99,,2013-04-16 03:12:00,
2013-04-15 22:22:00,33.0,-99.9,-100.00,WNW,283,7.0,-999.0,0,-99.99,,,-99.99,,2013-04-16 03:22:00,
2013-04-15 22:33:00,33.0,-99.9,-100.00,WNW,288,9.0,-999.0,0,-99.99,,,-99.99,,2013-04-16 03:33:00,
2013-04-15 22:43:00,33.0,-99.9,-100.00,NW,320,10.0,-999.0,0,-99.99,,,-99.99,,2013-04-16 03:43:00,
2013-04-15 22:53:00,33.0,-99.9,-100.00,NW,307,7.0,-999.0,0,-99.99,,,-99.99,,2013-04-16 03:53:00,
2013-04-15 23:03:00,33.0,-99.9,-100.00,WNW,295,7.0,-999.0,0,-99.99,,,-99.99,,2013-04-16 04:03:00,
2013-04-15 23:13:00,32.0,-99.9,-100.00,WNW,297,6.0,-999.0,0,-99.99,,,-99.99,,2013-04-16 04:13:00,
2013-04-15 23:23:00,32.0,-99.9,-100.00,WNW,301,5.0,-999.0,0,-99.99,,,-99.99,,2013-04-16 04:23:00,
2013-04-15 23:33:00,32.0,-99.9,-100.00,WNW,297,7.0,-999.0,0,-99.99,,,-99.99,,2013-04-16 04:33:00,
2013-04-15 23:42:00,31.0,-99.9,-100.00,NW,306,5.0,-999.0,0,-99.99,,,-99.99,,2013-04-16 04:42:00,
2013-04-15 23:53:00,31.0,-99.9,-100.00,WNW,289,5.0,-999.0,0,-99.99,,,-99.99,,2013-04-16 04:53:00,